This is the latest recevied weather packets stored in our database for station/object HI3RRR-14. If no packets are shown the sender has not sent any weather packets the latest 10 day(s).
| Time | Temp. | Humidity | Pressure | Rain* | Wind** | Luminosity | Snow |
|---|---|---|---|---|---|---|---|
| 1787795006 | 23.89° C | 82% | 1017 hPa | 0 mm | - | - | - |
| 1787794406 | 23.89° C | 82% | 1017 hPa | 0 mm | - | - | - |
| 1787793805 | 24.44° C | 78% | 1017 hPa | 0 mm | - | - | - |
| 1787793204 | 24.44° C | 78% | 1017 hPa | 0 mm | - | - | - |
| 1787792604 | 24.44° C | 78% | 1017 hPa | 0 mm | - | - | - |
| 1787792003 | 24.44° C | 81% | 1017 hPa | 0 mm | - | - | - |
| 1787791403 | 23.89° C | 78% | 1017 hPa | 0 mm | - | - | - |
| 1787790802 | 23.89° C | 78% | 1017 hPa | 0 mm | - | - | - |
| 1787790201 | 25° C | 75% | 1016 hPa | 0 mm | - | - | - |
| 1787789601 | 25° C | 76% | 1017 hPa | 0 mm | - | - | - |
| 1787789000 | 25° C | 76% | 1017 hPa | 0 mm | - | - | - |
| 1787788400 | 25° C | 79% | 1017 hPa | 0 mm | - | - | - |
| 1787787799 | 25° C | 78% | 1017 hPa | 0 mm | - | - | - |
| 1787787198 | 25° C | 78% | 1017 hPa | 0 mm | - | - | - |
| 1787786595 | 25.56° C | 74% | 1016 hPa | 0 mm | - | - | - |
| 1787785994 | 25.56° C | 72% | 1016 hPa | 1.27 mm | - | - | - |
| 1787785394 | 25.56° C | 72% | 1016 hPa | 0 mm | - | - | - |
| 1787784793 | 25.56° C | 78% | 1016 hPa | 0 mm | - | - | - |
| 1787784196 | 25.56° C | 78% | 1016 hPa | 0 mm | - | - | - |
| 1787783592 | 25.56° C | 78% | 1016 hPa | 0.25 mm | - | - | - |
| 1787782991 | 26.67° C | 71% | 1015 hPa | 0.51 mm | - | - | - |
| 1787782390 | 26.67° C | 75% | 1015 hPa | 0.76 mm | - | - | - |
| 1787781789 | 26.67° C | 75% | 1015 hPa | 1.27 mm | - | - | - |
| 1787781189 | 27.22° C | 79% | 1015 hPa | 1.27 mm | - | - | - |
| 1787780588 | 27.22° C | 77% | 1015 hPa | 1.02 mm | - | - | - |
* Rain latest hour (hover to see other rain measurements)
** Current wind speed in m/s (hover to see current wind gust speed)